Regional Weather Roundup
Issued by NWS

Home | Current Version | Previous Version | Text Only | Print | Product List | Glossary Off
Versions: 1 2 3 4 5 6 7 8 9 10 11 12 13 14 15 16 17 18 19 20 21 22 23 24 25 26 27 28 29 30 31 32 33 34 35 36 37 38 39 40 41 42 43 44 45 46 47 48 49 50

668
ASUS43 KOAX 172102
RWRNE

WEATHER ROUNDUP FOR NEBRASKA
NATIONAL WEATHER SERVICE OMAHA NE
400 PM CDT THU AUG 17 2017

NOTES: SATELLITE DATA IS BEING USED TO AUGMENT CLOUD COVER ABOVE
       12000 FEET.
       "FAIR" INDICATES FEW OR NO CLOUDS BELOW 12,000 FEET WITH NO
       SIGNIFICANT WEATHER AND/OR OBSTRUCTIONS TO VISIBILITY.


NEZ001>004-019>022-054>056-172200-
NEBRASKA PANHANDLE

CITY           SKY/WX    TMP DP  RH WIND       PRES   REMARKS
SCOTTSBLUFF    SUNNY     88  43  20 N5        29.98F
ALLIANCE       SUNNY     86  47  25 MISG      29.97F
CHADRON        SUNNY     90  42  18 SW8       29.90F
GORDON         FAIR      89  46  22 SW15      29.94F
KIMBALL        PTSUNNY   83  47  27 S17       30.08S
SIDNEY         CLOUDY    88  40  18 SW14G22   30.05S
$$

NEZ057>060-069>072-079>082-172200-
SOUTHWEST NEBRASKA

CITY           SKY/WX    TMP DP  RH WIND       PRES   REMARKS
NORTH PLATTE   SUNNY     87  58  37 S9        29.97F
IMPERIAL       SUNNY     88  54  31 SW14G23   30.00F
LEXINGTON      SUNNY     85  55  36 SW8       29.99F
MCCOOK         MOSUNNY   87  57  35 S7        29.99F
OGALLALA       SUNNY     87  58  37 S15       29.99S
$$

NEZ005>010-023>029-035>040-094-172200-
NORTH CENTRAL NEBRASKA

CITY           SKY/WX    TMP DP  RH WIND       PRES   REMARKS
VALENTINE      SUNNY     92  49  22 SW15      29.91F
AINSWORTH      SUNNY     86  56  36 S12G18    29.94F
BROKEN BOW     SUNNY     87  55  33 SW14      29.98S
O`NEILL        SUNNY     83  58  42 SW7       29.95S
ORD            SUNNY     84  55  36 SW8       29.95F
THEDFORD       SUNNY     88  54  30 S13       29.97F
$$

NEZ041-046>049-061>064-073>077-083>087-172200-
SOUTH CENTRAL NEBRASKA

CITY           SKY/WX    TMP DP  RH WIND       PRES   REMARKS
GRAND ISLAND   SUNNY     85  62  46 W10       29.98F
AURORA         SUNNY     82  63  51 W5        29.98S
HASTINGS       SUNNY     83  59  44 W7        30.00F
HEBRON         SUNNY     86  58  38 CALM      29.97F
HOLDREGE       SUNNY     83  56  39 SW8       30.00F
KEARNEY        SUNNY     84  60  44 SW12      29.99F
YORK           SUNNY     81  64  57 W6        29.97F
$$

NEZ011>018-030>034-042>045-172200-
NORTHEAST NEBRASKA

CITY           SKY/WX    TMP DP  RH WIND       PRES   REMARKS
NORFOLK        SUNNY     80  57  45 W8        29.92F
ALBION         SUNNY     84  61  44 W6        29.95F
BLAIR          RAIN      79  59  49 NW10G17   29.93S
COLUMBUS       SUNNY     81  62  52 W9        29.95F
FREMONT        SUNNY     81  60  49 W10       29.94S
TEKAMAH        SUNNY     80  58  46 W12G21    29.91F
WAYNE          SUNNY     79  59  50 W10       29.93S
$$

NEZ050>053-065>068-078-088>093-172200-
SOUTHEAST NEBRASKA

CITY           SKY/WX    TMP DP  RH WIND       PRES   REMARKS
LINCOLN        SUNNY     84  58  40 NW9       29.95F
OMAHA EPPLEY   SUNNY     83  57  41 NW15      29.91F
BEATRICE       SUNNY     85  59  41 W9G16     29.96S
FALLS CITY     SUNNY     83  58  42 NW13G18   29.94R
NEBRASKA CITY  SUNNY     82  57  42 NW16      29.95R
PLATTSMOUTH    SUNNY     81  58  45 NW12      29.93F
$$

NEZ044-045-051>053-067-172200-
OMAHA AREA

CITY           SKY/WX    TMP DP  RH WIND       PRES   REMARKS
OMAHA EPPLEY   SUNNY     83  57  41 NW15      29.91F
BLAIR          RAIN      79  59  49 NW10G17   29.93S
FREMONT        SUNNY     81  60  49 W10       29.94S
MILLARD        SUNNY     82  60  46 W13       29.93S
OFFUTT AFB     SUNNY     84  55  37 W14G20    29.91F
PLATTSMOUTH    SUNNY     81  58  45 NW12      29.93F
WAHOO          FAIR      80  62  54 W8        29.94F
$$




USA.gov is the U.S. government's official web portal to all federal, state and local government web resources and services.